Notices

What's New in latest Release from April 7th, 2021:

- Updated Glossary, including Speed of Maximum Gust, and Total Hourly Precipitation

- Updated national and regional climate services offices contacts and prices information

- Addition of station inventory lists for 1981-2010, 1971-2000, and 1961-1990 Normals.

If you haven't already, please take our survey and provide feedback about our website: https://eccc.sondage-survey.ca/f/LanguageSelection.aspx?s=442ca660-fcf1-47c0-95a9-59707d6fd709

Hourly Data Report for December 01, 2019

PINAWA
MANITOBA
Current Station Operator: ECCC - MSC

50°10'38.020" N
96°03'53.000" W
268.00 m
503B1ER
71448
WEA

Download Data

Hourly Data (December 2019)
Hourly Data Report for December 1, 2019
TIME
LST
Temp Definition
°C
Dew Point Definition
°C
Rel Hum Definition
%
Precip. Amount Definition
mm

Wind Dir Definition
10's deg

Wind Spd Definition
km/h
Visibility Definition
km
Stn Press Definition
kPa
Hmdx Definition


Wind Chill Definition


Weather Definition


00:00 -7.9 LegendMM LegendMM 0.0 1 8   98.47   -12 LegendNANA
01:00 -8.7 LegendMM LegendMM 0.0 1 7   98.46   -13 LegendNANA
02:00 -9.2 LegendMM LegendMM 0.0 2 7   98.47   -13 LegendNANA
03:00 -10.1 LegendMM LegendMM 0.0 3 5   98.51   -13 LegendNANA
04:00 -10.3 LegendMM LegendMM 0.0 1 7   98.54   -14 LegendNANA
05:00 -10.2 LegendMM LegendMM 0.0 1 6   98.55   -14 LegendNANA
06:00 -10.9 LegendMM LegendMM 0.0 1 5   98.59   -14 LegendNANA
07:00 -11.8 LegendMM LegendMM 0.0 34 8   98.62   -17 LegendNANA
08:00 -12.2 LegendMM LegendMM 0.0 33 7   98.67   -17 LegendNANA
09:00 -12.1 LegendMM LegendMM 0.0 33 9   98.71   -17 LegendNANA
10:00 -10.5 LegendMM LegendMM 0.0 33 7   98.74   -15 LegendNANA
11:00 -9.1 LegendMM LegendMM 0.0 34 7   98.79   -13 LegendNANA
12:00 -7.2 LegendMM LegendMM 0.0 34 5   98.73   -10 LegendNANA
13:00 -5.8 LegendMM LegendMM 0.0 36 5   98.68   -8 LegendNANA
14:00 -4.2 LegendMM LegendMM 0.0 1 4   98.67   -6 LegendNANA
15:00 -3.9 LegendMM LegendMM 0.0 34 8   98.70   -7 LegendNANA
16:00 -4.7 LegendMM LegendMM 0.0 28 6   98.72   -7 LegendNANA
17:00 -6.6 LegendMM LegendMM 0.0 28 6   98.75   -10 LegendNANA
18:00 -9.2 LegendMM LegendMM 0.0 29 8   98.77   -14 LegendNANA
19:00 -10.1 LegendMM LegendMM 0.0 29 4   98.71   -12 LegendNANA
20:00 -10.7 LegendMM LegendMM 0.0 25 1   98.73   -11 LegendNANA
21:00 -11.5 LegendMM LegendMM 0.0 18 3   98.68   -13 LegendNANA
22:00 -10.6 LegendMM LegendMM 0.0 18 3   98.61   -12 LegendNANA
23:00 -10.5 LegendMM LegendMM 0.0 19 4   98.57   -13 LegendNANA

Notes on Data Quality.

Legend

  • E = Estimated
  • M = Missing
  • NA = Not Available*
  • [empty] = Indicates an unobserved value
Date modified: